Regional Weather Roundup
Issued by NWS New Orleans/Baton Rouge, LA

Home | Current Version | Previous Version | Text Only | Print | Product List | Glossary Off
Versions: 1 2 3 4 5 6 7 8 9 10 11 12 13 14 15 16 17 18 19 20 21 22 23 24 25 26 27 28 29 30 31 32 33 34 35 36 37 38 39 40 41 42 43 44 45 46 47 48 49 50

952
ASUS44 KLIX 012311
RWRLIX
NEW ORLEANS REGIONAL WEATHER ROUNDUP
NATIONAL WEATHER SERVICE NEW ORLEANS LA
600 PM CDT WED APR 01 2015

NOTE: "FAIR" INDICATES FEW OR NO CLOUDS BELOW 12,000 FEET WITH NO
      SIGNIFICANT WEATHER AND/OR OBSTRUCTIONS TO VISIBILITY.
      SKY/WX - SKY CONDITION AND SIGNIFICANT WEATHER.
      TMP - AIR TEMPERATURE.     DP    - DEWPOINT TEMPERATURE.
      RH  - RELATIVE HUMIDITY.   PRES  - PRESSURE.
      HI  - HEAT INDEX.          WCI   - WIND CHILL INDEX.

*  THESE STATIONS ARE NOT NWS OR FAA STATIONS AND ARE NOT UNDER
   NWS QUALITY CONTROL.

LAZ038-040-048-061>063-065>067-069-020000-
SOUTHEAST LOUISIANA

CITY           SKY/WX    TMP DP  RH WIND       PRES   REMARKS
N.O. AUDUBON     N/A     78  67  68 MISG        N/A
N.O. INTL ARPT CLOUDY    77  61  57 S13       30.03S
N.O. LAKEFRONT CLOUDY    79  60  52 SW13      30.03S
SLIDELL        CLOUDY    77  65  66 S9        30.03R
BATON ROUGE    CLOUDY    77  62  59 S14G22    30.00S
BOOTHVILLE     CLOUDY    76  69  79 S6        30.05S
BELLE CHASSE   CLOUDY    75  64  68 S12       30.03S
BOGALUSA*        N/A     80  58  47 SW8       30.03S
GALLIANO*      CLOUDY    77  66  68 S6        30.05R
NEW ROADS*       N/A     76  61  59 S7        30.00R
GONZALES*      MOCLDY    77  64  63 S10       30.01S
HAMMOND*       CLOUDY    77  61  57 S8        30.02S
HOUMA*         MOSUNNY   75  66  73 S7        30.03
PORT FOURCHON* CLEAR     75  68  78 SE7       30.08R

$$

MSZ070-080>082-020000-
SOUTHERN MISSISSIPPI

CITY           SKY/WX    TMP DP  RH WIND       PRES   REMARKS
MCCOMB         CLOUDY    77  60  55 S8        30.00S
GULFPORT       CLOUDY    74  66  76 SE13      30.05R
BILOXI         CLOUDY    73  67  81 S10       30.05S
PASCAGOULA     CLOUDY    74  64  71 S7        30.05S
STENNIS ARPT*  MOSUNNY   73  63  68 MISG      30.04S

$$

COASTAL OBSERVATIONS
LAKE AND NEARSHORE STATIONS

STATION/POSITION TIME  TEMP    WIND        PRES    WAVE
                       AIR SEA DIR/SP/G            HT/PER
                 (UTC) (F)     (DEG/KT/KT) (MB)    (FT/S)
PASCAGOULA       2200   74     180/  8/ 10 1017.5
WAVELAND YACHT   2200   72 71  150/ 12/ 15 1017.3
GRAND ISLE       2200   74 71  160/  5/  8 1017.4
SOUTHWEST PASS   2200   75 56  140/  2/  5 1018.1
NEW CANAL        2200   77     210/ 10/ 14 1017.3
SHELL BEACH      2200   75 73  140/ 10/ 13 1017.2

OFFSHORE STATIONS

STATION/POSITION TIME  TEMP    WIND        PRES    WAVE
                       AIR SEA DIR/SP/G            HT/PER
                 (UTC) (F)     (DEG/KT/KT) (MB)    (FT/S)
64 S DAUPHIN ISL 2250   74 74  180/ 10/ 14 1018.4    2/ 4

$$




USA.gov is the U.S. government's official web portal to all federal, state and local government web resources and services.